QPF
0.00 0.00 0.01 0.00 0.00 0.00 0.00 0.00 0.00 0.00 0.00 0.00 0.01 0.00 0.00 0.00 0.00 0.00 0.00 0.01 0.01 0.01 0.01 0.01 0.01 0.01 0.01 0.01 0.01 0.01 0.01 0.01 0.01 0.01 0.01 0.02 0.01 0.01 0.01 0.00 0.00 0.00 0.01
0.00 0.00 0.01 0.01 0.01 0.01 0.00 0.00 0.00 0.00 0.00 0.01 0.01 0.01 0.01 0.00 0.00 0.00 0.00 0.01 0.01 0.01 0.01 0.01 0.01 0.01 0.01 0.01 0.00 0.00 0.00 0.00 0.01 0.00 0.00 0.01 0.01 0.01 0.01 0.01 0.00 0.00 0.01
0.01 0.01 0.02 0.02 0.01 0.01 0.01 0.01 0.01 0.00 0.01 0.02 0.01 0.01 0.01 0.01 0.00 0.00 0.01 0.01 0.02 0.02 0.01 0.01 0.01 0.00 0.00 0.00 0.00 0.00 0.00 0.00 0.00 0.00 0.00 0.00 0.00 0.01 0.01 0.01 0.01 0.01 0.01
0.02 0.02 0.01 0.02 0.02 0.02 0.02 0.02 0.01 0.01 0.01 0.02 0.01 0.01 0.01 0.02 0.01 0.01 0.01 0.01 0.03 0.02 0.01 0.01 0.00 0.00 0.00 0.00 0.00 0.00 0.00 0.00 0.00 0.00 0.00 0.00 0.00 0.01 0.00 0.00 0.01 0.01 0.01
0.02 0.03 0.02 0.03 0.03 0.03 0.03 0.03 0.02 0.01 0.02 0.01 0.01 0.01 0.02 0.02 0.01 0.01 0.02 0.02 0.03 0.02 0.01 0.00 0.00 0.00 0.00 0.00 0.00 0.00 0.00 0.00 0.00 0.00 0.00 0.00 0.00 0.00 0.00 0.01 0.00 0.00 0.00
0.02 0.03 0.04 0.05 0.05 0.05 0.04 0.03 0.03 0.02 0.02 0.02 0.02 0.02 0.03 0.02 0.02 0.01 0.02 0.02 0.02 0.02 0.01 0.00 0.00 0.00 0.00 0.00 0.00 0.00 0.00 0.00 0.00 0.00 0.00 0.00 0.00 0.00 0.00 0.00 0.00 0.00 0.00
0.02 0.03 0.04 0.07 0.08 0.07 0.06 0.04 0.03 0.03 0.03 0.02 0.03 0.03 0.04 0.03 0.02 0.02 0.02 0.02 0.02 0.03 0.01 0.00 0.00 0.00 0.00 0.00 0.00 0.00 0.00 0.00 0.00 0.00 0.00 0.00 0.00 0.00 0.00 0.00 0.00 0.00 0.00
0.03 0.04 0.05 0.07 0.08 0.08 0.08 0.06 0.04 0.04 0.03 0.04 0.04 0.04 0.05 0.05 0.03 0.02 0.02 0.02 0.02 0.02 0.01 0.00 0.00 0.00 0.00 0.00 0.00 0.00 0.00 0.00 0.00 0.00 0.00 0.00 0.00 0.00 0.00 0.00 0.00 0.00 0.00
0.05 0.06 0.07 0.09 0.09 0.09 0.09 0.09 0.07 0.06 0.05 0.03 0.03 0.04 0.06 0.06 0.05 0.03 0.02 0.02 0.01 0.01 0.01 0.00 0.00 0.00 0.00 0.00 0.00 0.00 0.00 0.00 0.00 0.00 0.00 0.00 0.00 0.00 0.00 0.00 0.00 0.00 0.00
0.05 0.06 0.08 0.11 0.12 0.10 0.09 0.10 0.10 0.07 0.06 0.05 0.04 0.04 0.05 0.06 0.05 0.04 0.03 0.02 0.01 0.01 0.00 0.00 0.00 0.00 0.00 0.00 0.00 0.00 0.00 0.00 0.00 0.00 0.00 0.00 0.00 0.00 0.00 0.00 0.00 0.00 0.00
0.05 0.06 0.09 0.11 0.13 0.14 0.12 0.11 0.12 0.09 0.07 0.07 0.07 0.06 0.05 0.06 0.04 0.03 0.02 0.03 0.01 0.01 0.00 0.00 0.00 0.00 0.00 0.00 0.00 0.00 0.00 0.00 0.00 0.00 0.00 0.00 0.00 0.00 0.00 0.00 0.00 0.00 0.00
0.04 0.05 0.08 0.09 0.11 0.14 0.16 0.13 0.12 0.10 0.08 0.06 0.05 0.06 0.05 0.04 0.03 0.02 0.02 0.02 0.02 0.01 0.00 0.00 0.00 0.00 0.00 0.00 0.00 0.00 0.00 0.00 0.00 0.00 0.00 0.00 0.00 0.00 0.00 0.00 0.00 0.00 0.00
0.05 0.06 0.09 0.11 0.11 0.13 0.16 0.17 0.14 0.11 0.10 0.08 0.06 0.05 0.03 0.03 0.04 0.03 0.01 0.02 0.02 0.01 0.00 0.00 0.00 0.00 0.00 0.00 0.00 0.00 0.00 0.00 0.00 0.00 0.00 0.00 0.00 0.00 0.00 0.00 0.00 0.00 0.00
0.07 0.07 0.08 0.10 0.13 0.15 0.17 0.17 0.16 0.13 0.11 0.09 0.07 0.05 0.04 0.03 0.03 0.03 0.02 0.02 0.02 0.01 0.00 0.00 0.00 0.00 0.00 0.00 0.00 0.00 0.00 0.00 0.00 0.00 0.00 0.00 0.00 0.00 0.00 0.00 0.00 0.00 0.01
0.06 0.08 0.10 0.10 0.13 0.15 0.16 0.18 0.16 0.12 0.12 0.11 0.09 0.07 0.05 0.03 0.03 0.03 0.02 0.02 0.02 0.01 0.01 0.00 0.00 0.00 0.00 0.00 0.00 0.00 0.00 0.00 0.00 0.00 0.00 0.00 0.00 0.00 0.00 0.00 0.00 0.00 0.01
0.06 0.06 0.09 0.11 0.13 0.16 0.15 0.15 0.15 0.12 0.12 0.12 0.11 0.09 0.07 0.04 0.03 0.04 0.02 0.02 0.01 0.02 0.01 0.01 0.00 0.00 0.00 0.00 0.00 0.00 0.00 0.00 0.00 0.00 0.00 0.00 0.00 0.00 0.00 0.00 0.00 0.01 0.01
0.08 0.06 0.07 0.08 0.11 0.15 0.16 0.13 0.15 0.12 0.11 0.12 0.11 0.11 0.10 0.07 0.05 0.04 0.04 0.03 0.02 0.02 0.01 0.01 0.00 0.00 0.00 0.00 0.00 0.00 0.00 0.00 0.00 0.00 0.00 0.00 0.00 0.00 0.00 0.00 0.00 0.01 0.01
0.08 0.07 0.06 0.07 0.08 0.13 0.17 0.15 0.14 0.15 0.11 0.11 0.11 0.11 0.12 0.10 0.08 0.07 0.05 0.04 0.03 0.03 0.02 0.01 0.01 0.00 0.00 0.00 0.00 0.00 0.00 0.00 0.00 0.00 0.00 0.00 0.00 0.00 0.00 0.00 0.00 0.00 0.01
0.07 0.06 0.06 0.06 0.08 0.12 0.18 0.18 0.17 0.19 0.15 0.13 0.13 0.12 0.11 0.11 0.09 0.08 0.07 0.06 0.05 0.03 0.02 0.02 0.02 0.01 0.01 0.00 0.00 0.00 0.00 0.00 0.00 0.00 0.00 0.00 0.00 0.00 0.00 0.00 0.00 0.00 0.00
0.08 0.07 0.06 0.06 0.08 0.11 0.16 0.19 0.21 0.22 0.19 0.16 0.15 0.14 0.12 0.10 0.09 0.09 0.07 0.06 0.05 0.04 0.04 0.03 0.02 0.02 0.01 0.01 0.01 0.00 0.00 0.00 0.00 0.00 0.00 0.00 0.01 0.00 0.00 0.00 0.00 0.00 0.00
0.10 0.09 0.06 0.06 0.08 0.11 0.15 0.19 0.21 0.20 0.18 0.15 0.14 0.14 0.15 0.13 0.09 0.08 0.08 0.06 0.05 0.04 0.04 0.04 0.04 0.03 0.02 0.02 0.02 0.01 0.01 0.01 0.00 0.00 0.00 0.00 0.00 0.00 0.00 0.00 0.00 0.00 0.00
0.09 0.12 0.11 0.09 0.11 0.11 0.13 0.16 0.20 0.20 0.17 0.14 0.13 0.13 0.14 0.14 0.13 0.11 0.09 0.08 0.06 0.04 0.04 0.05 0.05 0.04 0.03 0.03 0.03 0.02 0.02 0.01 0.01 0.00 0.00 0.00 0.00 0.00 0.00 0.00 0.01 0.01 0.01
0.12 0.12 0.13 0.13 0.15 0.14 0.15 0.15 0.20 0.24 0.23 0.19 0.16 0.15 0.15 0.15 0.14 0.14 0.12 0.11 0.09 0.06 0.05 0.05 0.05 0.05 0.04 0.03 0.03 0.03 0.02 0.02 0.01 0.00 0.00 0.00 0.00 0.01 0.01 0.02 0.02 0.02 0.02
0.19 0.16 0.15 0.17 0.18 0.19 0.22 0.21 0.21 0.24 0.24 0.21 0.18 0.16 0.16 0.18 0.16 0.13 0.13 0.12 0.11 0.09 0.06 0.05 0.05 0.05 0.05 0.04 0.04 0.03 0.02 0.01 0.01 0.01 0.00 0.00 0.01 0.01 0.01 0.02 0.02 0.02 0.02
0.27 0.21 0.18 0.18 0.17 0.19 0.20 0.23 0.23 0.22 0.21 0.20 0.19 0.19 0.19 0.21 0.19 0.15 0.13 0.14 0.13 0.11 0.09 0.07 0.05 0.04 0.04 0.04 0.04 0.03 0.03 0.03 0.02 0.02 0.01 0.01 0.01 0.01 0.01 0.01 0.01 0.02 0.02
0.27 0.25 0.21 0.22 0.21 0.20 0.18 0.19 0.22 0.20 0.17 0.16 0.15 0.16 0.16 0.17 0.18 0.16 0.14 0.13 0.12 0.11 0.09 0.08 0.07 0.05 0.04 0.03 0.03 0.03 0.04 0.04 0.04 0.04 0.03 0.02 0.02 0.02 0.01 0.02 0.02 0.02 0.02
MSLP
1010.51 1010.16 1010.11 1010.33 1010.74 1011.25 1011.76 1012.20 1012.51 1012.72 1012.85 1012.97 1013.13 1013.36 1013.68 1014.04 1014.41 1014.74 1014.99 1015.15 1015.25 1015.32 1015.40 1015.55 1015.77 1016.06 1016.40 1016.75 1017.04 1017.27 1017.41 1017.48 1017.50 1017.49 1017.49 1017.50 1017.51 1017.52 1017.51 1017.47 1017.40 1017.31 1017.22
1010.53 1010.21 1010.17 1010.39 1010.81 1011.32 1011.85 1012.30 1012.64 1012.87 1013.02 1013.16 1013.33 1013.57 1013.89 1014.26 1014.63 1014.96 1015.22 1015.39 1015.49 1015.56 1015.64 1015.78 1015.99 1016.28 1016.60 1016.94 1017.23 1017.46 1017.62 1017.71 1017.76 1017.78 1017.80 1017.82 1017.84 1017.85 1017.84 1017.78 1017.69 1017.59 1017.48
1010.48 1010.19 1010.16 1010.40 1010.83 1011.37 1011.92 1012.40 1012.78 1013.04 1013.23 1013.38 1013.56 1013.80 1014.10 1014.46 1014.82 1015.14 1015.40 1015.57 1015.68 1015.75 1015.84 1015.98 1016.19 1016.46 1016.78 1017.10 1017.39 1017.63 1017.81 1017.92 1018.00 1018.06 1018.11 1018.16 1018.19 1018.21 1018.19 1018.13 1018.04 1017.93 1017.82
1010.37 1010.12 1010.12 1010.38 1010.83 1011.39 1011.97 1012.49 1012.91 1013.20 1013.41 1013.58 1013.76 1013.99 1014.28 1014.61 1014.95 1015.27 1015.52 1015.70 1015.82 1015.91 1016.01 1016.16 1016.36 1016.63 1016.94 1017.25 1017.55 1017.79 1017.98 1018.13 1018.24 1018.32 1018.40 1018.47 1018.53 1018.56 1018.55 1018.49 1018.41 1018.30 1018.20
1010.27 1010.05 1010.08 1010.36 1010.83 1011.41 1012.01 1012.55 1012.99 1013.31 1013.53 1013.71 1013.89 1014.11 1014.38 1014.70 1015.03 1015.33 1015.59 1015.79 1015.93 1016.05 1016.18 1016.34 1016.55 1016.81 1017.11 1017.42 1017.71 1017.96 1018.16 1018.32 1018.45 1018.56 1018.66 1018.75 1018.82 1018.85 1018.85 1018.81 1018.74 1018.65 1018.57
1010.25 1010.05 1010.10 1010.38 1010.85 1011.43 1012.03 1012.57 1013.01 1013.33 1013.56 1013.74 1013.92 1014.14 1014.41 1014.72 1015.05 1015.37 1015.65 1015.88 1016.05 1016.20 1016.36 1016.54 1016.76 1017.01 1017.30 1017.60 1017.88 1018.13 1018.34 1018.51 1018.65 1018.77 1018.88 1018.96 1019.03 1019.07 1019.08 1019.05 1019.00 1018.94 1018.88
1010.35 1010.17 1010.22 1010.49 1010.94 1011.48 1012.04 1012.55 1012.96 1013.27 1013.49 1013.68 1013.87 1014.09 1014.37 1014.70 1015.05 1015.40 1015.71 1015.98 1016.20 1016.39 1016.57 1016.77 1016.99 1017.25 1017.52 1017.80 1018.07 1018.31 1018.51 1018.68 1018.82 1018.94 1019.04 1019.11 1019.17 1019.20 1019.21 1019.20 1019.17 1019.13 1019.11
1010.62 1010.44 1010.46 1010.70 1011.09 1011.56 1012.05 1012.50 1012.86 1013.14 1013.35 1013.54 1013.74 1013.99 1014.31 1014.67 1015.06 1015.44 1015.80 1016.11 1016.38 1016.60 1016.81 1017.03 1017.25 1017.50 1017.75 1018.01 1018.26 1018.48 1018.67 1018.83 1018.96 1019.06 1019.15 1019.21 1019.25 1019.27 1019.27 1019.26 1019.24 1019.24 1019.24
1011.01 1010.82 1010.81 1010.99 1011.29 1011.67 1012.07 1012.42 1012.72 1012.96 1013.16 1013.36 1013.59 1013.88 1014.24 1014.64 1015.08 1015.51 1015.91 1016.26 1016.56 1016.82 1017.06 1017.28 1017.50 1017.74 1017.97 1018.21 1018.43 1018.63 1018.80 1018.94 1019.06 1019.15 1019.22 1019.26 1019.28 1019.28 1019.27 1019.25 1019.25 1019.26 1019.28
1011.48 1011.26 1011.21 1011.31 1011.52 1011.79 1012.07 1012.34 1012.57 1012.77 1012.96 1013.18 1013.45 1013.78 1014.18 1014.63 1015.11 1015.58 1016.01 1016.40 1016.73 1017.01 1017.27 1017.50 1017.72 1017.94 1018.16 1018.37 1018.56 1018.74 1018.90 1019.03 1019.13 1019.21 1019.26 1019.29 1019.29 1019.28 1019.25 1019.23 1019.22 1019.23 1019.26
1011.91 1011.68 1011.57 1011.60 1011.71 1011.87 1012.05 1012.23 1012.40 1012.58 1012.78 1013.02 1013.33 1013.71 1014.15 1014.63 1015.13 1015.62 1016.08 1016.48 1016.84 1017.15 1017.42 1017.66 1017.89 1018.10 1018.30 1018.49 1018.66 1018.81 1018.95 1019.07 1019.16 1019.24 1019.28 1019.30 1019.29 1019.27 1019.23 1019.19 1019.17 1019.17 1019.20
1012.22 1011.97 1011.82 1011.77 1011.80 1011.86 1011.96 1012.08 1012.21 1012.38 1012.60 1012.88 1013.24 1013.65 1014.12 1014.62 1015.13 1015.62 1016.08 1016.50 1016.87 1017.20 1017.49 1017.76 1018.00 1018.21 1018.40 1018.57 1018.72 1018.84 1018.96 1019.06 1019.15 1019.22 1019.26 1019.28 1019.28 1019.25 1019.20 1019.15 1019.12 1019.10 1019.12
1012.32 1012.07 1011.89 1011.79 1011.74 1011.73 1011.77 1011.85 1011.98 1012.17 1012.43 1012.75 1013.14 1013.59 1014.07 1014.57 1015.07 1015.55 1016.00 1016.43 1016.82 1017.17 1017.50 1017.80 1018.06 1018.28 1018.47 1018.62 1018.74 1018.84 1018.92 1019.01 1019.08 1019.15 1019.20 1019.23 1019.23 1019.20 1019.15 1019.10 1019.05 1019.02 1019.02
1012.19 1011.95 1011.75 1011.61 1011.51 1011.46 1011.47 1011.55 1011.70 1011.92 1012.23 1012.60 1013.04 1013.50 1013.99 1014.47 1014.95 1015.41 1015.85 1016.28 1016.69 1017.09 1017.46 1017.80 1018.09 1018.33 1018.52 1018.65 1018.74 1018.80 1018.85 1018.90 1018.96 1019.02 1019.07 1019.11 1019.12 1019.10 1019.07 1019.01 1018.95 1018.91 1018.89
1011.83 1011.61 1011.42 1011.25 1011.13 1011.06 1011.07 1011.16 1011.35 1011.63 1012.00 1012.43 1012.89 1013.37 1013.85 1014.32 1014.76 1015.20 1015.64 1016.08 1016.52 1016.97 1017.40 1017.79 1018.13 1018.39 1018.57 1018.68 1018.74 1018.76 1018.76 1018.77 1018.79 1018.84 1018.88 1018.93 1018.96 1018.96 1018.93 1018.89 1018.83 1018.78 1018.75
1011.30 1011.11 1010.93 1010.77 1010.64 1010.58 1010.60 1010.74 1010.97 1011.31 1011.74 1012.21 1012.71 1013.20 1013.67 1014.11 1014.54 1014.96 1015.40 1015.86 1016.35 1016.85 1017.34 1017.79 1018.17 1018.45 1018.64 1018.73 1018.74 1018.71 1018.66 1018.62 1018.61 1018.63 1018.67 1018.72 1018.76 1018.78 1018.77 1018.74 1018.69 1018.64 1018.61
1010.66 1010.53 1010.39 1010.24 1010.13 1010.08 1010.14 1010.31 1010.60 1010.99 1011.46 1011.98 1012.49 1012.99 1013.45 1013.88 1014.29 1014.71 1015.16 1015.65 1016.18 1016.74 1017.29 1017.79 1018.21 1018.52 1018.70 1018.77 1018.75 1018.67 1018.57 1018.49 1018.44 1018.44 1018.46 1018.51 1018.56 1018.60 1018.61 1018.59 1018.56 1018.52 1018.49
1010.00 1009.94 1009.85 1009.74 1009.65 1009.64 1009.72 1009.93 1010.26 1010.69 1011.20 1011.73 1012.26 1012.76 1013.21 1013.63 1014.04 1014.46 1014.93 1015.46 1016.03 1016.64 1017.24 1017.79 1018.24 1018.56 1018.74 1018.80 1018.75 1018.64 1018.51 1018.40 1018.32 1018.30 1018.32 1018.37 1018.42 1018.47 1018.49 1018.49 1018.46 1018.44 1018.42
1009.35 1009.38 1009.36 1009.31 1009.27 1009.28 1009.40 1009.63 1009.98 1010.43 1010.95 1011.50 1012.03 1012.52 1012.97 1013.39 1013.80 1014.23 1014.72 1015.27 1015.88 1016.53 1017.16 1017.73 1018.20 1018.54 1018.73 1018.78 1018.73 1018.61 1018.48 1018.36 1018.28 1018.25 1018.27 1018.31 1018.37 1018.42 1018.45 1018.45 1018.44 1018.42 1018.41
1008.72 1008.86 1008.92 1008.94 1008.96 1009.02 1009.16 1009.41 1009.77 1010.22 1010.73 1011.26 1011.78 1012.27 1012.71 1013.13 1013.55 1014.00 1014.51 1015.08 1015.72 1016.37 1017.02 1017.60 1018.08 1018.42 1018.62 1018.69 1018.66 1018.57 1018.46 1018.36 1018.30 1018.28 1018.31 1018.36 1018.41 1018.46 1018.49 1018.50 1018.49 1018.47 1018.45
1008.07 1008.33 1008.50 1008.61 1008.70 1008.81 1008.98 1009.24 1009.59 1010.03 1010.51 1011.02 1011.52 1012.00 1012.44 1012.87 1013.30 1013.77 1014.29 1014.87 1015.51 1016.16 1016.79 1017.37 1017.84 1018.19 1018.41 1018.51 1018.53 1018.49 1018.43 1018.38 1018.36 1018.37 1018.41 1018.46 1018.52 1018.56 1018.58 1018.58 1018.57 1018.54 1018.52
1007.38 1007.75 1008.04 1008.25 1008.42 1008.59 1008.80 1009.07 1009.41 1009.82 1010.28 1010.76 1011.24 1011.70 1012.15 1012.58 1013.04 1013.52 1014.05 1014.63 1015.25 1015.88 1016.48 1017.03 1017.49 1017.84 1018.09 1018.24 1018.31 1018.34 1018.35 1018.37 1018.40 1018.45 1018.51 1018.57 1018.61 1018.64 1018.65 1018.65 1018.62 1018.60 1018.57
1006.61 1007.09 1007.48 1007.80 1008.06 1008.29 1008.54 1008.83 1009.17 1009.57 1010.00 1010.46 1010.92 1011.38 1011.84 1012.30 1012.77 1013.26 1013.80 1014.37 1014.96 1015.55 1016.11 1016.62 1017.06 1017.41 1017.68 1017.87 1018.00 1018.11 1018.20 1018.28 1018.36 1018.45 1018.52 1018.58 1018.62 1018.63 1018.63 1018.61 1018.59 1018.56 1018.54
1005.79 1006.34 1006.83 1007.24 1007.59 1007.90 1008.20 1008.52 1008.87 1009.26 1009.69 1010.14 1010.60 1011.07 1011.55 1012.03 1012.52 1013.04 1013.57 1014.12 1014.68 1015.22 1015.74 1016.20 1016.61 1016.94 1017.22 1017.44 1017.63 1017.79 1017.94 1018.07 1018.19 1018.29 1018.37 1018.42 1018.44 1018.45 1018.44 1018.43 1018.41 1018.40 1018.38
1004.99 1005.58 1006.12 1006.61 1007.04 1007.43 1007.79 1008.16 1008.54 1008.95 1009.38 1009.84 1010.32 1010.81 1011.32 1011.83 1012.35 1012.88 1013.41 1013.95 1014.46 1014.96 1015.42 1015.83 1016.19 1016.50 1016.77 1017.01 1017.22 1017.41 1017.58 1017.73 1017.85 1017.95 1018.01 1018.05 1018.06 1018.06 1018.06 1018.06 1018.07 1018.09 1018.11
1004.34 1004.92 1005.48 1006.02 1006.51 1006.96 1007.40 1007.82 1008.25 1008.69 1009.15 1009.64 1010.15 1010.68 1011.21 1011.75 1012.30 1012.84 1013.37 1013.88 1014.36 1014.81 1015.21 1015.56 1015.87 1016.15 1016.39 1016.61 1016.81 1016.99 1017.15 1017.28 1017.38 1017.44 1017.48 1017.49 1017.49 1017.49 1017.50 1017.54 1017.59 1017.66 1017.73
Thickness
5759 5763 5764 5762 5760 5759 5757 5757 5756 5756 5757 5756 5755 5753 5751 5750 5748 5747 5746 5745 5744 5743 5742 5741 5739 5738 5736 5735 5733 5732 5731 5731 5730 5730 5729 5729 5729 5728 5727 5727 5726 5726 5725
5758 5759 5759 5758 5756 5755 5754 5753 5752 5752 5752 5752 5751 5750 5748 5747 5746 5744 5743 5742 5741 5740 5739 5738 5736 5735 5733 5732 5730 5729 5728 5727 5727 5726 5726 5725 5725 5725 5724 5724 5723 5723 5722
5754 5755 5754 5753 5752 5750 5749 5748 5748 5748 5748 5748 5747 5746 5745 5744 5743 5742 5741 5740 5739 5738 5737 5735 5733 5732 5730 5729 5727 5726 5725 5724 5723 5723 5722 5722 5722 5722 5721 5720 5720 5719 5719
5749 5749 5749 5748 5747 5746 5745 5744 5743 5743 5743 5743 5743 5742 5742 5741 5740 5739 5738 5737 5736 5735 5733 5732 5730 5728 5727 5726 5724 5723 5722 5721 5720 5719 5719 5719 5719 5718 5718 5717 5717 5716 5715
5742 5743 5744 5743 5742 5742 5741 5740 5739 5739 5738 5738 5738 5738 5738 5737 5736 5735 5734 5733 5732 5731 5730 5728 5726 5725 5724 5723 5722 5720 5719 5718 5717 5716 5716 5715 5715 5715 5714 5714 5713 5712 5711
5734 5736 5737 5737 5737 5737 5736 5736 5735 5735 5734 5734 5734 5734 5734 5733 5732 5731 5731 5729 5728 5727 5726 5724 5723 5721 5720 5719 5718 5717 5716 5715 5714 5713 5712 5712 5712 5712 5711 5710 5709 5709 5708
5725 5728 5731 5732 5732 5732 5732 5731 5731 5731 5730 5730 5730 5729 5729 5729 5728 5727 5726 5725 5724 5723 5722 5720 5719 5718 5717 5716 5715 5714 5712 5711 5711 5710 5709 5709 5709 5708 5708 5707 5706 5705 5705
5716 5720 5723 5725 5726 5726 5726 5727 5727 5726 5726 5726 5725 5725 5725 5725 5724 5723 5722 5721 5720 5719 5718 5717 5715 5714 5713 5713 5711 5710 5709 5708 5707 5706 5706 5705 5705 5705 5704 5703 5702 5702 5701
5707 5711 5714 5716 5718 5720 5721 5721 5722 5722 5721 5721 5721 5720 5720 5720 5719 5718 5717 5717 5716 5715 5714 5713 5711 5710 5710 5709 5708 5707 5706 5705 5704 5703 5702 5702 5702 5701 5701 5700 5699 5698 5697
5697 5701 5705 5708 5710 5712 5714 5715 5716 5717 5716 5716 5716 5715 5715 5714 5714 5713 5713 5712 5711 5710 5710 5709 5707 5706 5706 5705 5704 5703 5702 5701 5700 5699 5699 5699 5698 5698 5697 5696 5695 5694 5694
5686 5691 5695 5699 5702 5705 5707 5709 5710 5711 5711 5710 5710 5710 5709 5709 5708 5708 5707 5707 5706 5706 5705 5704 5703 5702 5701 5701 5700 5699 5698 5697 5696 5696 5695 5695 5695 5694 5693 5692 5692 5691 5690
5674 5681 5686 5690 5694 5697 5700 5702 5703 5704 5705 5704 5704 5703 5703 5703 5702 5702 5702 5702 5701 5700 5700 5699 5699 5698 5697 5696 5695 5695 5694 5693 5692 5692 5692 5691 5691 5690 5690 5689 5688 5687 5686
5664 5670 5676 5681 5685 5689 5692 5694 5696 5698 5698 5698 5698 5697 5697 5696 5696 5696 5696 5696 5695 5695 5694 5694 5693 5693 5692 5692 5691 5690 5690 5689 5688 5688 5687 5687 5687 5686 5685 5684 5684 5683 5682
5653 5660 5666 5672 5676 5680 5684 5687 5689 5691 5692 5692 5692 5692 5691 5691 5691 5691 5690 5690 5690 5690 5689 5689 5688 5688 5687 5687 5686 5686 5685 5685 5684 5683 5683 5682 5682 5682 5681 5680 5679 5678 5678
5643 5650 5656 5661 5667 5671 5675 5679 5682 5685 5686 5687 5686 5687 5686 5686 5685 5685 5685 5685 5685 5685 5684 5683 5682 5682 5681 5681 5681 5681 5680 5680 5679 5679 5678 5678 5677 5676 5676 5676 5675 5674 5673
5635 5641 5647 5652 5658 5662 5667 5671 5675 5677 5679 5680 5681 5681 5681 5681 5680 5679 5679 5679 5679 5679 5679 5678 5677 5677 5676 5675 5675 5675 5675 5675 5675 5674 5673 5673 5672 5672 5671 5670 5670 5669 5668
5626 5632 5637 5643 5648 5654 5659 5663 5666 5670 5672 5673 5674 5675 5675 5675 5675 5674 5674 5674 5673 5673 5673 5672 5671 5671 5670 5669 5669 5669 5669 5670 5669 5669 5668 5668 5667 5666 5665 5665 5664 5663 5662
5617 5623 5628 5634 5640 5645 5650 5655 5658 5662 5664 5666 5668 5669 5670 5670 5670 5669 5668 5668 5668 5667 5667 5666 5665 5664 5664 5663 5663 5663 5663 5664 5664 5663 5662 5662 5661 5660 5659 5658 5658 5657 5656
5609 5614 5619 5625 5630 5636 5642 5646 5650 5653 5657 5660 5661 5663 5664 5664 5664 5664 5663 5663 5662 5661 5661 5660 5659 5658 5657 5656 5656 5656 5657 5657 5657 5657 5657 5656 5655 5654 5653 5652 5651 5650 5649
5600 5605 5610 5617 5622 5628 5632 5636 5640 5645 5649 5652 5655 5657 5658 5658 5658 5658 5657 5657 5656 5655 5654 5654 5653 5652 5651 5650 5649 5649 5650 5650 5650 5651 5651 5650 5649 5648 5647 5645 5645 5643 5641
5591 5597 5603 5608 5614 5619 5623 5627 5631 5636 5641 5644 5647 5649 5651 5652 5652 5652 5651 5650 5650 5650 5650 5649 5647 5645 5643 5642 5640 5640 5642 5643 5643 5643 5643 5642 5642 5641 5640 5638 5637 5635 5634
5584 5590 5596 5601 5606 5611 5617 5622 5626 5630 5634 5637 5640 5641 5643 5646 5646 5646 5646 5645 5644 5644 5643 5643 5641 5639 5638 5637 5635 5632 5632 5633 5636 5637 5635 5634 5634 5633 5632 5631 5629 5627 5626
5578 5584 5590 5593 5597 5603 5608 5613 5617 5620 5624 5628 5630 5633 5636 5638 5640 5640 5640 5640 5638 5638 5638 5638 5637 5635 5633 5630 5630 5629 5625 5626 5627 5628 5628 5627 5626 5625 5624 5623 5621 5619 5617
5571 5576 5580 5585 5588 5593 5598 5604 5609 5611 5616 5621 5624 5626 5629 5631 5632 5633 5633 5634 5633 5633 5633 5633 5632 5630 5628 5625 5623 5624 5624 5624 5619 5619 5619 5619 5618 5617 5616 5615 5613 5610 5609
5565 5569 5572 5576 5580 5585 5590 5595 5599 5604 5608 5612 5614 5617 5620 5622 5625 5626 5627 5627 5628 5629 5628 5627 5626 5625 5623 5621 5618 5617 5615 5613 5613 5611 5611 5611 5608 5609 5608 5606 5604 5602 5601
5559 5563 5566 5570 5573 5578 5583 5586 5591 5596 5600 5602 5606 5609 5611 5614 5617 5619 5620 5621 5622 5622 5622 5621 5620 5618 5617 5616 5614 5612 5610 5608 5606 5604 5602 5601 5600 5599 5598 5597 5595 5593 5592